This demonstration page uses our WeatherBlox Daily Observations layout. Learn more.

Left ArrowRight Arrow

41.55636, -103.73856

Hourly Observations for April 16, 2021

Temp ( °F °C ) Dew Point ( °F °C ) Humidity (%) Winds ( mph kmh ) Pressure ( in mb ) Visibility ( mi km ) Precip ( " mm )
12:58 am 00:58 Mostly Cloudy with Light Snow 25 -3.7 24 -4.6 94 94 N 6 9 30.25 1024 0.25 0.402335 0 0
1:58 am 01:58 Cloudy with Light Snow 25 -4 23 -5 93 93 N 7 11 30.25 1024 0.5 0.80467 0.01 0.254
2:58 am 02:58 Cloudy with Light Snow 25 -4 23 -5 93 93 N 7 11 30.25 1024 2.25 3.621015 0 0
3:58 am 03:58 Cloudy with Light Snow 25 -4.1 23 -5.1 93 93 N 7 11 30.25 1024 7 11.26538 0.01 0.254
4:58 am 04:58 Cloudy with Light Snow 25 -4.1 23 -5.1 93 93 NNW 7 11 30.25 1024 1.5 2.41401 0.01 0.254
5:58 am 05:58 Cloudy with Light Snow 25 -4.1 23 -5.1 93 93 NNW 7 11 30.26 1025 7 11.26538 0 0
6:58 am 06:58 Cloudy with Light Snow 25 -4 23 -5 93 93 NNW 9 15 30.27 1025 1.5 2.41401 0.01 0.254
7:58 am 07:58 Cloudy with Light Snow 25 -3.8 23 -4.8 93 93 NNW 8 13 30.28 1025 0.75 1.207005 0.01 0.254
8:58 am 08:58 Cloudy with Light Snow 26 -3.5 24 -4.5 93 93 N 9 15 30.29 1026 1 1.60934 0.02 0.508
9:58 am 09:58 Mostly Cloudy with Light Snow 26 -3.1 25 -4.1 93 93 NNW 9 15 30.3 1026 1.25 2.011675 0.04 1.016
10:58 am 10:58 Mostly Cloudy with Light Snow 27 -2.6 25 -3.8 92 92 NNW 8 13 30.31 1027 2.25 3.621015 0.06 1.524
11:58 am 11:58 Cloudy with Light Snow 28 -2.1 26 -3.4 91 91 N 9 15 30.29 1026 7 11.26538 0 0
12:58 pm 12:58 Cloudy with Light Snow 29 -1.7 26 -3.2 90 90 N 10 17 30.31 1027 1 1.60934 0.01 0.254
1:58 pm 13:58 Mostly Cloudy with Light Snow 29 -1.7 26 -3.3 89 89 N 9 15 30.32 1027 1.25 2.011675 0.01 0.254
2:58 pm 14:58 Mostly Cloudy with Light Rain/Snow 30 -1.2 27 -2.9 88 88 N 9 15 30.31 1026 4 6.43736 0 0
3:58 pm 15:58 Mostly Cloudy with Mist and Fog 30 -1 27 -2.7 88 88 N 14 22 30.32 1027 2.75 4.425685 0 0
4:58 pm 16:58 Mostly Cloudy with Light Rain/Snow 30 -0.9 27 -2.7 88 88 N 10 17 30.32 1027 5 8.0467 0 0
5:58 pm 17:58 Mostly Cloudy with Light Rain/Snow 30 -0.9 28 -2.4 90 90 N 9 15 30.33 1027 10 16.0934 0 0
6:58 pm 18:58 Mostly Cloudy with Light Snow Showers 30 -1.1 27 -2.8 88 88 N 7 11 30.32 1027 10 16.0934 0 0
7:58 pm 19:58 Cloudy with Light Snow Showers 29 -1.6 27 -2.9 91 91 NNW 6 9 30.35 1028 4 6.43736 0 0
8:58 pm 20:58 Mostly Cloudy with Light Snow 30 -1.1 28 -2 94 94 NW 9 15 30.36 1028 1.75 2.816345 0 0
9:58 pm 21:58 Cloudy with Light Snow 30 -1.1 29 -1.9 94 94 NNW 14 22 30.37 1028 10 16.0934 0.01 0.254
10:58 pm 22:58 Cloudy with Light Snow 30 -1.2 28 -2.3 92 92 NNW 13 20 30.36 1028 10 16.0934 0.01 0.254
11:58 pm 23:58 Mostly Cloudy with Light Snow 29 -1.7 27 -2.7 93 93 NW 13 20 30.35 1028 10 16.0934 0 0

Powered by AerisWeather